This demonstration page uses our WeatherBlox Daily Observations layout. Learn more.

Left ArrowRight Arrow

40.92945, -100.16068

Hourly Observations for May 2, 2020

Temp ( °F °C ) Dew Point ( °F °C ) Humidity (%) Winds ( mph kmh ) Pressure ( in mb ) Visibility ( mi km ) Precip ( " mm )
12:15 am 00:15 Clear 67 19.2 47 8.2 49 49 NNE 15 24 29.88 1012 10 16.0934 0 0
12:35 am 00:35 Clear 66 19 46 8 49 49 NNE 16 26 29.89 1012 10 16.0934 0 0
12:55 am 00:55 Clear 66 18.7 46 8 50 50 NE 16 26 29.86 1011 10 16.0934 0 0
1:15 am 01:15 Clear 65 18.5 47 8.1 51 51 NNE 16 26 29.88 1012 10 16.0934 0 0
1:35 am 01:35 Partly Cloudy 65 18.1 47 8.5 54 54 NNE 13 20 29.91 1013 10 16.0934 0 0
1:55 am 01:55 Mostly Cloudy 64 17.6 48 8.7 56 56 NNE 12 19 29.92 1013 10 16.0934 0 0
2:15 am 02:15 Mostly Cloudy 63 17.1 48 9 59 59 NNE 10 17 29.93 1013 10 16.0934 0 0
2:35 am 02:35 Clear 62 16.6 48 9.1 61 61 NE 12 19 29.93 1014 10 16.0934 0 0
2:55 am 02:55 Clear 61 16.2 48 9.1 63 63 NNE 8 13 29.95 1014 10 16.0934 0 0
3:15 am 03:15 Clear 61 16.1 48 9 63 63 NNE 9 15 29.95 1014 10 16.0934 0 0
3:35 am 03:35 Clear 61 16 48 8.8 63 63 NNE 8 13 29.96 1014 10 16.0934 0 0
3:55 am 03:55 Clear 60 15.6 48 8.7 64 64 NE 9 15 29.96 1015 10 16.0934 0 0
4:15 am 04:15 Clear 60 15.3 48 8.9 66 66 NNE 10 17 29.96 1015 10 16.0934 0 0
4:35 am 04:35 Clear 59 15.2 48 8.9 66 66 NNE 12 19 29.97 1015 10 16.0934 0 0
4:55 am 04:55 Mostly Cloudy 59 15.1 48 9 67 67 N 16 26 29.99 1016 10 16.0934 0 0
5:15 am 05:15 Cloudy with Light Rain 57 13.7 51 10.5 81 81 N 14 22 30.02 1017 10 16.0934 0 0
5:35 am 05:35 Cloudy with Light Rain 56 13.5 51 10.8 84 84 N 16 26 30.03 1017 10 16.0934 0 0
5:55 am 05:55 Cloudy 55 13 52 10.9 87 87 NNE 18 30 30 1016 10 16.0934 0 0
6:10 am 06:10 Mostly Cloudy 55 12.5 52 11.1 91 91 N 13 20 30.04 1017 10 16.0934 0 0
6:35 am 06:35 Cloudy 54 12.2 52 11.3 94 94 NE 16 26 30 1016 10 16.0934 0 0
6:50 am 06:50 Cloudy 54 12.3 52 11.3 94 94 NNE 13 20 30.02 1017 10 16.0934 0 0
7:15 am 07:15 Cloudy with Nearby Thunderstorms 54 12.1 52 11.2 94 94 NE 18 30 30 1016 10 16.0934 0 0
7:30 am 07:30 Cloudy 54 12.1 52 11.2 94 94 NNE 14 22 30.03 1017 10 16.0934 0 0
7:55 am 07:55 Cloudy with Light Rain 53 11.8 52 11 95 95 NE 15 24 30.03 1017 10 16.0934 0 0
8:15 am 08:15 Mostly Cloudy 54 12 51 10.8 92 92 NE 10 17 30.04 1017 10 16.0934 0 0
8:35 am 08:35 Partly Cloudy 55 12.7 52 11 89 89 NNE 9 15 30.07 1018 10 16.0934 0 0
8:55 am 08:55 Mostly Cloudy 55 12.9 52 10.9 88 88 N 12 19 30.1 1019 10 16.0934 0 0
9:15 am 09:15 Cloudy 55 13 52 11.1 88 88 N 14 22 30.08 1019 10 16.0934 0 0
9:35 am 09:35 Cloudy 56 13.5 52 11.2 86 86 NNE 18 30 30.07 1018 10 16.0934 0 0
9:55 am 09:55 Cloudy 58 14.4 52 11.1 81 81 NNE 20 31 30.05 1018 10 16.0934 0 0
10:15 am 10:15 Mostly Cloudy 59 15.2 52 11 76 76 NE 17 28 30.04 1017 10 16.0934 0 0
10:35 am 10:35 Mostly Cloudy 58 14.7 51 10.3 75 75 NE 17 28 30.06 1018 10 16.0934 0 0
10:55 am 10:55 Cloudy 58 14.7 50 10.2 75 75 NE 14 22 30.07 1018 10 16.0934 0 0
11:15 am 11:15 Cloudy 59 14.9 50 10 73 73 NNE 16 26 30.08 1019 10 16.0934 0 0
11:35 am 11:35 Cloudy 59 14.9 51 10.3 74 74 N 16 26 30.09 1019 10 16.0934 0 0
11:55 am 11:55 Cloudy 58 14.7 51 10.5 76 76 NNE 14 22 30.08 1019 10 16.0934 0 0
12:15 pm 12:15 Cloudy 58 14.2 50 10 76 76 NNE 13 20 30.1 1019 10 16.0934 0 0
12:35 pm 12:35 Cloudy 58 14.7 49 9.7 72 72 NE 14 22 30.1 1019 10 16.0934 0 0
12:55 pm 12:55 Cloudy 58 14.6 50 9.8 73 73 NE 13 20 30.1 1019 10 16.0934 0 0
1:15 pm 13:15 Cloudy 59 14.9 48 9.1 68 68 NE 13 20 30.1 1019 10 16.0934 0 0
1:35 pm 13:35 Cloudy 59 15.1 48 8.9 67 67 NNE 13 20 30.08 1019 10 16.0934 0 0
1:55 pm 13:55 Cloudy 59 15.2 49 9.3 68 68 NNE 13 20 30.07 1018 10 16.0934 0 0
2:15 pm 14:15 Cloudy 59 15.2 48 9 67 67 ENE 12 19 30.05 1018 10 16.0934 0 0
2:35 pm 14:35 Cloudy 60 15.7 47 8.6 63 63 NNE 13 20 30.06 1018 10 16.0934 0 0
2:55 pm 14:55 Cloudy 63 17 48 9 59 59 ENE 17 28 30.04 1017 10 16.0934 0 0
3:15 pm 15:15 Partly Cloudy 65 18.4 49 9.5 56 56 NE 13 20 30.02 1016 10 16.0934 0 0
3:35 pm 15:35 Sunny 66 18.7 50 10.2 58 58 NE 15 24 30 1016 10 16.0934 0 0
3:55 pm 15:55 Sunny 65 18.5 50 9.9 57 57 NE 13 20 29.99 1016 10 16.0934 0 0
4:15 pm 16:15 Sunny 64 18 50 9.9 59 59 NE 15 24 29.99 1016 10 16.0934 0 0
4:35 pm 16:35 Partly Cloudy 64 18 49 9.3 57 57 NE 16 26 29.99 1016 10 16.0934 0 0
4:55 pm 16:55 Partly Cloudy 64 18 48 8.9 55 55 NE 13 20 29.99 1016 10 16.0934 0 0
5:15 pm 17:15 Partly Cloudy 64 17.5 47 8.1 54 54 NE 13 20 29.99 1016 10 16.0934 0 0
5:35 pm 17:35 Cloudy 63 17.4 47 8.3 55 55 NE 10 17 29.99 1016 10 16.0934 0 0
5:55 pm 17:55 Cloudy 63 17.2 45 7 51 51 NE 12 19 30 1016 10 16.0934 0 0
6:15 pm 18:15 Cloudy 63 17.2 45 7.3 52 52 NE 12 19 30 1016 10 16.0934 0 0
6:35 pm 18:35 Cloudy 63 17 45 7 52 52 ENE 8 13 30.01 1016 10 16.0934 0 0
6:55 pm 18:55 Cloudy 62 16.7 44 6.8 52 52 ENE 6 9 30.01 1016 10 16.0934 0 0
7:15 pm 19:15 Cloudy 62 16.6 44 6.9 53 53 ENE 7 11 30 1016 10 16.0934 0 0
7:35 pm 19:35 Cloudy 61 16.3 44 6.9 54 54 ENE 3 6 30.01 1016 10 16.0934 0 0
7:55 pm 19:55 Cloudy 61 16 45 7 55 55 NE 6 9 30.03 1017 10 16.0934 0 0
8:15 pm 20:15 Cloudy 60 15.6 45 7 57 57 NE 6 9 30.03 1017 10 16.0934 0 0
8:35 pm 20:35 Cloudy 59 15.2 45 7 58 58 NE 6 9 30.04 1017 10 16.0934 0 0
8:55 pm 20:55 Mostly Cloudy 58 14.2 45 7.2 63 63 NNE 7 11 30.05 1018 10 16.0934 0 0
9:15 pm 21:15 Mostly Cloudy 57 13.9 47 8.5 70 70 NNE 6 9 30.07 1018 10 16.0934 0 0
9:35 pm 21:35 Cloudy 56 13.5 47 8.3 71 71 NE 6 9 30.06 1018 10 16.0934 0 0
9:55 pm 21:55 Cloudy 56 13.3 47 8.2 71 71 ENE 8 13 30.05 1018 10 16.0934 0 0
10:15 pm 22:15 Mostly Cloudy 55 13 47 8.2 73 73 ENE 5 7 30.07 1018 10 16.0934 0 0
10:35 pm 22:35 Partly Cloudy 55 12.6 46 7.8 73 73 NE 3 6 30.09 1019 10 16.0934 0 0
10:55 pm 22:55 Mostly Cloudy 54 12 46 7.8 76 76 Calm 30.09 1019 10 16.0934 0 0
11:15 pm 23:15 Cloudy 54 12.3 47 8.2 76 76 NW 5 7 30.1 1019 10 16.0934 0 0
11:35 pm 23:35 Cloudy 55 12.6 47 8.6 77 77 NW 8 13 30.12 1020 10 16.0934 0 0
11:55 pm 23:55 Cloudy with Light Rain 53 11.7 49 9.4 86 86 Calm 30.09 1019 10 16.0934 0 0

Powered by AerisWeather